User: anonymous   Login
Location: Unspecified
(0.0000°N, 0.0000°E)
Time: 02:12:10
(UTC+00:00)
Language:

AO-92 - Orbit

View from above orbital plane
View from above orbital plane
View from above satellite
View from above satellite

Ground track
Ground track

The orbit data is extracted from the following two-line orbital elements,

1 43137U 18004AC  19113.20630850  .00000986  00000-0  44512-4 0  9993
2 43137  97.4918 181.1246 0011066  94.6970 265.5530 15.23340736 70894
Epoch (UTC): 23 April 2019 04:57:05
Eccentricity: 0.0011066
inclination: 97.4918°
perigee height: 488 km
apogee height: 503 km
right ascension of ascending node: 181.1246°
argument of perigee: 94.6970°
revolutions per day: 15.23340736
mean anomaly at epoch: 265.5530°
orbit number at epoch: 7089

The dashed part of the orbit path shows where the satellite is in the earth's shadow,  

DLR